[[{"header":{"parameterUnit":"m.s-1","parameterCategory":1,"la1":30.2991,"la2":30.254,"lo1":-89.0895,"lo2":-89.0444,"dy":0.0017,"dx":0.0017,"nx":28,"ny":28,"refTime":"2023-10-26T21:00:00:Z","depth":0,"parameterNumber":2,"parameterNumberName":"U-component_of_WINDS"},"data":[0,0,0,0,0,0,0,0,0,0,0,0,0,0,0,0,0,0,0,0,0,0,0,0,0,0,0,0,0,0,0,0,0,0,0,0,0,0,0,0,0,0,0,0,0,0,0,0,0,0,0,0,0,0,0,0,0,0,-2.3195,-2.3196,0,-2.322,-2.322,-2.322,-2.3128,-2.3126,-2.3123,-2.312,-2.3148,-2.3151,-2.3155,0,0,0,0,0,0,0,0,0,0,0,0,0,-2.3073,-2.3076,-2.3195,-2.3196,-2.3196,-2.322,-2.322,-2.322,-2.3129,-2.3125,-2.3122,-2.3119,-2.3147,-2.3151,-2.3155,0,0,0,0,0,0,0,0,0,0,0,0,0,-2.3115,-2.3077,-2.3195,-2.3153,-2.315,-2.322,-2.322,-2.322,-2.313,-2.3125,-2.3121,-2.3117,-2.3146,-2.3151,-2.3156,-2.3268,0,0,-2.3171,-2.3173,0,0,0,0,0,0,0,0,-2.3113,-2.312,-2.3159,-2.3156,-2.3152,-2.3167,-2.3187,-2.3237,-2.3131,-2.3137,-2.312,-2.3115,-2.3158,-2.3162,-2.3175,-2.327,-2.3271,-2.3171,-2.3174,-2.3176,-2.3178,0,0,0,0,0,0,0,-2.311,-2.3118,-2.3205,-2.316,-2.3156,-2.3134,-2.3136,-2.3196,-2.3171,-2.3136,-2.313,-2.3134,-2.3155,-2.3171,-2.3175,-2.3271,-2.3171,-2.3175,-2.3178,-2.318,-2.3462,-2.3466,0,0,0,0,0,0,-2.3112,-2.3116,-2.3204,-2.3206,-2.3122,-2.314,-2.3141,-2.3166,-2.3169,-2.3166,-2.3137,-2.3129,-2.3164,-2.317,-2.3176,-2.3309,-2.3176,-2.3181,-2.3184,-2.3457,-2.3463,-2.3468,0,0,0,0,0,0,-2.311,-2.3121,-2.3203,-2.3159,-2.3168,-2.3146,-2.3175,-2.3169,-2.3184,-2.317,-2.3165,-2.3157,-2.3161,-2.3169,-2.3246,-2.3309,-2.3183,-2.3188,-2.3452,-2.3459,-2.3465,-2.3576,0,0,0,0,0,0,-2.3107,-2.3121,-2.3162,-2.3161,-2.3171,-2.3272,-2.3179,-2.3172,-2.3193,-2.3183,-2.3188,-2.3185,-2.3159,-2.3239,-2.3251,-2.3313,-2.3191,-2.3446,-2.3455,-2.3463,-2.3567,-2.3586,-2.3602,0,0,0,0,0,-2.3103,-2.3193,-2.3165,-2.3176,-2.3222,-2.3276,-2.3282,-2.3249,-2.3198,-2.324,-2.3232,-2.3185,-2.33,-2.3248,-2.3261,-2.3325,-2.3442,-2.3453,-2.3462,-2.3559,-2.3582,-2.3602,0,0,0,0,0,0,-2.3203,-2.3192,-2.3161,-2.3253,-2.3266,-2.326,-2.3312,-2.3275,-2.3303,-2.3293,-2.3252,-2.3254,-2.3339,-2.334,-2.3282,-2.3436,-2.3363,-2.3376,-2.3432,-2.3454,-2.3471,-2.3469,-2.3196,0,0,0,0,0,-2.3235,-2.3279,-2.3267,-2.335,-2.3358,-2.3335,-2.3357,-2.3331,-2.3343,-2.3348,-2.3345,-2.336,-2.34,-2.3427,-2.3463,-2.3567,-2.3568,-2.3618,-2.3636,-2.365,-2.3662,-2.3719,-2.3741,-2.3501,-2.3501,-2.3501,0,0,-2.3303,-2.3303,-2.3333,-2.337,-2.3377,-2.3425,-2.334,-2.3393,-2.3428,-2.3357,-2.3429,-2.3428,-2.3442,-2.3534,-2.3574,-2.3537,-2.3729,-2.3663,-2.3675,-2.3679,-2.3732,-2.3754,-2.3775,-2.3508,-2.3507,-2.3505,0,0,-2.3451,-2.3455,-2.3524,-2.3533,-2.3545,-2.3529,-2.3547,-2.3547,-2.3543,-2.3616,-2.3564,-2.3606,-2.3675,-2.3687,-2.3703,-2.3858,-2.3817,-2.3871,-2.3964,-2.402,-2.4038,-2.4055,-2.4111,-2.4132,-2.3883,-2.3883,-2.3884,0,-2.3534,-2.3602,-2.3565,-2.3622,-2.3641,-2.3578,-2.3649,-2.366,-2.3684,-2.3699,-2.3657,-2.3744,-2.3749,-2.3843,-2.3881,-2.3896,-2.3915,-2.387,-2.4039,-2.4055,-2.407,-2.4123,-2.4144,-2.389,-2.3889,-2.3889,-2.3888,0,-2.3704,-2.3753,-2.3808,-2.3831,-2.3856,-2.392,-2.3895,-2.3925,-2.3897,-2.3886,-2.3962,-2.3966,-2.4002,-2.4023,-2.3996,-2.4115,-2.4092,-2.4045,-2.3971,-2.41,-2.4149,-2.4169,-2.3899,-2.3897,-2.3895,-2.3893,0,0,-2.3914,-2.3918,-2.3938,-2.3949,-2.3959,-2.3996,-2.4059,-2.4093,-2.4121,-2.414,-2.4192,-2.4253,-2.421,-2.4228,-2.4203,-2.4252,-2.4377,-2.4199,-2.4199,-2.4233,-2.4509,-2.4543,-2.4567,-2.4349,-2.4353,-2.4356,-2.4508,0,-2.4059,-2.4164,-2.4134,-2.424,-2.4285,-2.4227,-2.4282,-2.4295,-2.4287,-2.4325,-2.4317,-2.4361,-2.4301,-2.4312,-2.4358,-2.4352,-2.4431,-2.434,-2.4398,-2.4401,-2.4396,-2.4593,-2.4629,-2.4772,-2.4527,-2.453,-2.4532,0,-2.4242,-2.4268,-2.4379,-2.4383,-2.44,-2.445,-2.448,-2.4517,-2.4532,-2.4523,-2.4544,-2.4509,-2.4573,-2.4499,-2.4586,-2.4525,-2.4547,-2.4548,-2.4553,-2.4557,-2.4474,-2.4603,-2.4817,-2.4838,-2.4562,-2.456,-2.4558,0,-2.4384,-2.4448,-2.4522,-2.4533,-2.4539,-2.4576,-2.458,-2.459,-2.4614,-2.4641,-2.4656,-2.4691,-2.4711,-2.4739,-2.4716,-2.4664,-2.4808,-2.4731,-2.4803,-2.4804,-2.4835,-2.4833,-2.5056,-2.485,-2.485,-2.485,-2.4849,0,-2.4549,-2.462,-2.4586,-2.4632,-2.471,-2.4675,-2.4753,-2.4752,-2.4762,-2.4807,-2.4761,-2.4805,-2.4771,-2.4813,-2.4796,-2.4872,-2.4881,-2.4876,-2.4871,-2.488,-2.4881,-2.4894,-2.4883,-2.4855,-2.4854,-2.4853,-2.4852,0,-2.4721,-2.4701,-2.4779,-2.4779,-2.4781,-2.4838,-2.4839,-2.4882,-2.4872,-2.493,-2.4942,-2.4927,-2.4974,-2.4954,-2.5004,-2.4992,-2.5089,-2.5071,-2.5084,-2.5079,-2.5152,-2.5146,-2.5391,-2.5421,-2.5196,-2.5199,-2.52,0,-2.4827,-2.4879,-2.4886,-2.4913,-2.492,-2.4965,-2.4988,-2.4958,-2.4985,-2.5007,-2.5048,-2.5091,-2.5124,-2.5203,-2.5196,-2.5235,-2.5217,-2.5301,-2.5222,-2.5231,-2.5219,-2.5216,-2.5221,-2.5316,-2.5318,-2.5321,-2.5322,0,-2.5018,-2.5006,-2.5042,-2.5075,-2.5105,-2.513,-2.5151,-2.5176,-2.5147,-2.518,-2.5228,-2.5253,-2.5305,-2.5349,-2.5383,-2.5389,-2.5352,-2.5347,-2.5366,-2.5376,-2.5381,-2.538,-2.5127,-2.5341,-2.5339,-2.5338,-2.5337,-2.5336,-2.516,-2.5204,-2.5216,-2.5258,-2.5271,-2.5292,-2.5333,-2.5329,-2.5367,-2.5406,-2.5387,-2.5442,-2.5458,-2.55,-2.5512,-2.5556,-2.5524,-2.5551,-2.5558,-2.5565,-2.5574,-2.5375,-2.5563,-2.5562,-2.5562,-2.5561,-2.5561,0,-2.5348,-2.5353,-2.5392,-2.5423,-2.5457,-2.5419,-2.5441,-2.5472,-2.5521,-2.5539,-2.5572,-2.5628,-2.5671,-2.567,-2.571,-2.5746,-2.573,-2.5757,-2.5754,-2.5757,-2.5601,-2.5581,-2.577,-2.577,-2.577,-2.577,-2.577,-2.577,-2.545,-2.5523,-2.5514,-2.5594,-2.5599,-2.5653,-2.5669,-2.5689,-2.5703,-2.5767,-2.5803,-2.5801,-2.5812,-2.5853,-2.5891,-2.589,-2.5907,-2.5941,-2.5934,-2.5788,-2.5767,-2.5747,-2.5728,-2.5945,-2.5945,-2.6085,-2.6086,-2.6087]},{"header":{"parameterUnit":"m.s-1","parameterCategory":1,"la1":30.2991,"la2":30.254,"lo1":-89.0895,"lo2":-89.0444,"dy":0.0017,"dx":0.0017,"nx":28,"ny":28,"refTime":"2023-10-26T21:00:00:Z","depth":0,"parameterNumber":3,"parameterNumberName":"V-component_of_WINDS"},"data":[0,0,0,0,0,0,0,0,0,0,0,0,0,0,0,0,0,0,0,0,0,0,0,0,0,0,0,0,0,0,0,0,0,0,0,0,0,0,0,0,0,0,0,0,0,0,0,0,0,0,0,0,0,0,0,0,0,0,-0.4296,-0.4295,0,-0.4259,-0.4259,-0.4258,-0.4295,-0.4296,-0.4297,-0.4299,-0.4257,-0.4255,-0.4252,0,0,0,0,0,0,0,0,0,0,0,0,0,-0.4392,-0.4391,-0.4296,-0.4295,-0.4295,-0.4259,-0.4259,-0.4258,-0.4294,-0.4296,-0.4298,-0.43,-0.4258,-0.4255,-0.4252,0,0,0,0,0,0,0,0,0,0,0,0,0,-0.4352,-0.439,-0.4296,-0.4309,-0.431,-0.4259,-0.4259,-0.4258,-0.4294,-0.4296,-0.4298,-0.43,-0.4259,-0.4255,-0.4252,-0.4185,0,0,-0.424,-0.4239,0,0,0,0,0,0,0,0,-0.4355,-0.4349,-0.4307,-0.4308,-0.4309,-0.4284,-0.4277,-0.4233,-0.4293,-0.43,-0.4299,-0.4301,-0.4264,-0.426,-0.4248,-0.4184,-0.4182,-0.424,-0.4238,-0.4236,-0.4235,0,0,0,0,0,0,0,-0.4357,-0.4351,-0.4281,-0.4307,-0.4307,-0.4315,-0.4311,-0.4269,-0.427,-0.4299,-0.4302,-0.4297,-0.4265,-0.4252,-0.4247,-0.4181,-0.424,-0.4237,-0.4235,-0.4233,-0.4057,-0.4055,0,0,0,0,0,0,-0.4359,-0.4353,-0.4282,-0.428,-0.4338,-0.4311,-0.4308,-0.4289,-0.4271,-0.427,-0.4296,-0.4299,-0.4257,-0.4252,-0.4246,-0.4165,-0.4236,-0.4233,-0.4231,-0.4059,-0.4057,-0.4054,0,0,0,0,0,0,-0.4361,-0.4353,-0.4284,-0.4317,-0.4309,-0.4307,-0.4287,-0.4288,-0.4275,-0.4268,-0.4268,-0.4282,-0.4258,-0.4251,-0.42,-0.4164,-0.4231,-0.4228,-0.4062,-0.4059,-0.4055,-0.4004,0,0,0,0,0,0,-0.4364,-0.4353,-0.4329,-0.4316,-0.4307,-0.424,-0.4285,-0.4285,-0.4269,-0.4273,-0.4255,-0.4254,-0.426,-0.4205,-0.4196,-0.416,-0.4225,-0.4066,-0.4061,-0.4056,-0.4009,-0.3999,-0.3991,0,0,0,0,0,-0.4367,-0.4316,-0.4328,-0.4319,-0.4277,-0.4238,-0.4232,-0.424,-0.4266,-0.424,-0.4236,-0.4255,-0.417,-0.42,-0.419,-0.4152,-0.4068,-0.4062,-0.4057,-0.4013,-0.4001,-0.3991,0,0,0,0,0,0,-0.4324,-0.4315,-0.4328,-0.4271,-0.4255,-0.4244,-0.4213,-0.4228,-0.4203,-0.4208,-0.4218,-0.4213,-0.4158,-0.4151,-0.4184,-0.4086,-0.4123,-0.4115,-0.4093,-0.4081,-0.4072,-0.4074,-0.4222,0,0,0,0,0,-0.4308,-0.4278,-0.4271,-0.4222,-0.4213,-0.4214,-0.4197,-0.4205,-0.4188,-0.4181,-0.4172,-0.4154,-0.4122,-0.4102,-0.4073,-0.4008,-0.4003,-0.3977,-0.3968,-0.3961,-0.3953,-0.3916,-0.3903,-0.4036,-0.4036,-0.4036,0,0,-0.4275,-0.4266,-0.4246,-0.4213,-0.4201,-0.4168,-0.4208,-0.4172,-0.4146,-0.4175,-0.4125,-0.4118,-0.4098,-0.4039,-0.4012,-0.4031,-0.3916,-0.3954,-0.3948,-0.3944,-0.3909,-0.3896,-0.3885,-0.4032,-0.4033,-0.4033,0,0,-0.4196,-0.4188,-0.4145,-0.4132,-0.4114,-0.4115,-0.4104,-0.409,-0.4087,-0.4038,-0.4058,-0.4027,-0.3974,-0.3958,-0.3943,-0.3856,-0.3872,-0.3847,-0.3798,-0.3761,-0.3751,-0.3742,-0.3708,-0.3696,-0.384,-0.3839,-0.3839,0,-0.4157,-0.4109,-0.412,-0.4082,-0.4065,-0.4091,-0.4045,-0.4032,-0.4005,-0.3992,-0.4013,-0.3946,-0.3934,-0.387,-0.3849,-0.3837,-0.3823,-0.3848,-0.3752,-0.3743,-0.3734,-0.3702,-0.369,-0.3836,-0.3837,-0.3837,-0.3837,0,-0.4059,-0.4026,-0.3993,-0.3966,-0.3946,-0.3905,-0.3908,-0.3886,-0.3895,-0.3893,-0.384,-0.3827,-0.3795,-0.3781,-0.3789,-0.3717,-0.3729,-0.3751,-0.3788,-0.3718,-0.3688,-0.3676,-0.3832,-0.3833,-0.3834,-0.3835,0,0,-0.3953,-0.3933,-0.392,-0.3907,-0.3889,-0.3862,-0.382,-0.379,-0.3769,-0.3749,-0.3713,-0.3667,-0.3686,-0.3669,-0.3676,-0.3644,-0.3572,-0.3669,-0.3669,-0.3649,-0.3489,-0.3471,-0.3457,-0.3583,-0.3581,-0.3579,-0.349,0,-0.3872,-0.3801,-0.3809,-0.3741,-0.3708,-0.3731,-0.3694,-0.3677,-0.3674,-0.3644,-0.364,-0.3606,-0.3636,-0.3625,-0.3594,-0.3588,-0.354,-0.3594,-0.3547,-0.3545,-0.3549,-0.3442,-0.3423,-0.3339,-0.3478,-0.3476,-0.3475,0,-0.3769,-0.3745,-0.3673,-0.3658,-0.3644,-0.3611,-0.3582,-0.3555,-0.3535,-0.3534,-0.3514,-0.3526,-0.3482,-0.3521,-0.3458,-0.3495,-0.3476,-0.347,-0.3467,-0.3461,-0.3504,-0.343,-0.3313,-0.3299,-0.3457,-0.3459,-0.346,0,-0.3695,-0.3645,-0.3596,-0.3584,-0.3565,-0.3541,-0.3532,-0.3514,-0.3495,-0.3469,-0.3456,-0.3425,-0.3408,-0.3383,-0.3385,-0.3414,-0.332,-0.336,-0.3316,-0.3316,-0.3294,-0.3295,-0.3169,-0.3285,-0.3286,-0.3286,-0.3286,0,-0.3603,-0.3557,-0.3562,-0.3531,-0.348,-0.3489,-0.3437,-0.3431,-0.3415,-0.3381,-0.3399,-0.3367,-0.3372,-0.3339,-0.3341,-0.3287,-0.328,-0.3276,-0.3276,-0.3273,-0.3273,-0.3259,-0.3264,-0.3282,-0.3283,-0.3284,-0.3284,0,-0.3511,-0.3513,-0.346,-0.3446,-0.3441,-0.3404,-0.3391,-0.336,-0.3358,-0.3315,-0.3305,-0.3301,-0.3263,-0.3263,-0.3219,-0.322,-0.3153,-0.3162,-0.316,-0.3161,-0.3116,-0.3119,-0.2975,-0.2955,-0.3087,-0.3085,-0.3084,0,-0.3451,-0.3417,-0.3399,-0.3378,-0.3368,-0.3334,-0.3314,-0.3321,-0.3299,-0.3273,-0.3244,-0.3208,-0.3179,-0.3117,-0.3109,-0.3075,-0.3081,-0.3033,-0.3076,-0.3072,-0.3077,-0.3078,-0.3073,-0.3023,-0.3022,-0.3021,-0.302,0,-0.3344,-0.3346,-0.3317,-0.3288,-0.3263,-0.324,-0.3219,-0.32,-0.3204,-0.3178,-0.314,-0.3117,-0.3073,-0.3035,-0.3002,-0.299,-0.3004,-0.3007,-0.2994,-0.2989,-0.2989,-0.2986,-0.3135,-0.3009,-0.301,-0.3011,-0.3012,-0.3012,-0.3265,-0.3234,-0.3217,-0.3183,-0.3168,-0.3147,-0.3117,-0.311,-0.3079,-0.3044,-0.3049,-0.3005,-0.2984,-0.2941,-0.2927,-0.2891,-0.2908,-0.289,-0.2885,-0.288,-0.2874,-0.2996,-0.2885,-0.2886,-0.2886,-0.2886,-0.2886,0,-0.3156,-0.3146,-0.3115,-0.3084,-0.3057,-0.3075,-0.3051,-0.3026,-0.2988,-0.2968,-0.2939,-0.2893,-0.2857,-0.2845,-0.2809,-0.2783,-0.2788,-0.2773,-0.2773,-0.277,-0.2863,-0.2876,-0.2769,-0.2769,-0.2769,-0.2769,-0.2769,-0.2769,-0.3097,-0.3045,-0.3044,-0.2984,-0.2974,-0.2932,-0.2917,-0.2896,-0.288,-0.2828,-0.2798,-0.2792,-0.2774,-0.2736,-0.2703,-0.27,-0.2685,-0.2666,-0.2666,-0.2752,-0.2764,-0.2775,-0.2787,-0.2663,-0.2663,-0.2576,-0.2575,-0.2574]}]]